Location: Clermont
(50.2608°N, 4.3172°E)
Time: 08:20:10
(UTC+00:00)

Cosmos 773 Rocket - Pass Details

Date: 13 August 2020
Orbit: 746 x 776 km, 74.1° (Epoch: 26 September)

Event Time Altitude Azimuth Distance (km) Brightness Sun altitude
Rises 22:46:28 0° 338° (NNW) 3,208 8.6 -24.1°
Reaches altitude 10° 22:48:55 10° 344° (NNW) 2,277 7.5 -24.2°
Maximum altitude 22:53:55 50° 60° (ENE) 954 4.5 -24.4°
Enters shadow 22:54:53 44° 95° (E) 1,033 4.5 -24.4°
